Simultaneous Nadir Overpasses (SNOs) Predictions

Prediction of SNOs between LANDSAT-8 and METOP-B Satellite Orbit:

Table of predicted SNOs for the next 14.0 days since TLE Epoch: 6/22/2019
Index Date (LANDSAT-8) Time (LANDSAT-8) Lat,Lon (LANDSAT-8) SZA (LANDSAT-8 ) Date (METOP-B) Time (METOP-B) Lat,Lon (METOP-B) SZA (METOP-B ) Distance(km) Time Diff (sec)
1 06/23/2019 04:13:28 81.17, 157.34 59.93 06/23/2019 04:13:22 81.16, 157.36 59.92 0.57 6
2 06/23/2019 05:02:55 -81.16, -35.08 120.08 06/23/2019 05:04:03 -81.16, -35.26 120.07 3.10 68
3 06/25/2019 22:58:19 -81.14, 55.73 120.10 06/25/2019 22:57:06 -81.14, 55.75 120.13 0.32 73
4 06/25/2019 23:47:44 81.17,-136.19 59.97 06/25/2019 23:47:44 81.17,-136.00 60.00 3.21 0
5 06/26/2019 00:37:11 -81.17, 31.41 120.03 06/26/2019 00:38:25 -81.17, 31.39 120.00 0.68 74
6 06/28/2019 18:32:35 -81.14, 122.20 120.00 06/28/2019 18:31:28 -81.15, 122.38 120.00 3.15 67
7 06/28/2019 19:22:00 81.17, -69.74 60.07 06/28/2019 19:22:07 81.16, -69.75 60.07 0.52 7
8 07/01/2019 14:06:51 -81.14,-171.35 119.85 07/01/2019 14:05:51 -81.14,-171.37 119.88 0.40 60
9 07/01/2019 14:56:16 81.17, -3.32 60.22 07/01/2019 14:56:29 81.17, -3.13 60.25 3.21 13
10 07/04/2019 09:41:06 -81.14,-104.92 119.65 07/04/2019 09:40:12 -81.15,-104.76 119.65 2.86 54




NCC Satellite Simultaneous Nadir Overpasses (SNOs) Prediction Service
